W4RLH Weather Reports


time (UTC)temp
C
wind
direction
speed
KPH
gust
KPH
rain 1hr
cm
rain 24hr
cm
rain mn
cm
humidity
%
barometer
mb
20260503050041 9 0 0.0 1.6 0.00 0.61 0.00 25 1014.0
20260503044551 9 0 0.0 1.6 0.00 0.61 0.00 25 1014.0
20260503043043 9 360 0.0 1.6 0.00 0.61 0.00 25 1013.9
20260503041548 9 0 0.0 1.6 0.00 0.61 0.00 25 1013.8
20260503040048 9 0 0.0 3.2 0.00 0.61 0.00 26 1013.7
20260503034548 9 0 0.0 1.6 0.00 0.61 0.61 26 1013.6
20260503033058 9 360 0.0 0.0 0.00 0.61 0.61 27 1013.7
20260503031552 9 0 0.0 3.2 0.00 0.61 0.61 28 1013.5
20260503030043 9 0 0.0 1.6 0.00 0.61 0.61 27 1013.5
20260503024600 9 0 0.0 0.0 0.00 0.61 0.61 28 1013.3
20260503023042 10 0 0.0 1.6 0.00 0.61 0.61 27 1013.2
20260503021545 10 0 0.0 0.0 0.00 0.61 0.61 27 1013.2
20260503020045 10 0 0.0 1.6 0.00 0.61 0.61 30 1013.2
20260503014544 10 0 0.0 1.6 0.00 0.61 0.61 31 1013.4
20260503013046 10 0 0.0 0.0 0.00 0.61 0.61 32 1013.1
20260503011544 10 0 0.0 0.0 0.00 0.61 0.61 33 1012.8
20260503010043 10 0 0.0 0.0 0.00 0.61 0.61 34 1012.4
20260503004544 11 0 0.0 0.0 0.00 0.61 0.61 33 1012.2
20260503003045 11 0 0.0 0.0 0.00 0.61 0.61 31 1012.0
20260503001552 11 0 0.0 0.0 0.00 0.61 0.61 31 1011.8
20260503000100 11 0 0.0 0.0 0.00 0.61 0.61 31 1011.6
20260502234541 11 0 0.0 0.0 0.00 0.61 0.61 31 1011.5
20260502233059 11 0 0.0 0.0 0.00 0.61 0.61 32 1011.5
20260502231557 11 0 0.0 0.0 0.00 0.61 0.61 32 1011.3
20260502230037 11 0 0.0 0.0 0.00 0.61 0.61 34 1011.0
20260502224544 11 0 0.0 0.0 0.00 0.61 0.61 35 1011.2
20260502223047 11 0 0.0 0.0 0.00 0.61 0.61 39 1011.1
20260502221558 12 0 0.0 0.0 0.00 0.61 0.61 39 1011.1
20260502220044 12 0 0.0 0.0 0.00 0.61 0.61 44 1010.9
20260502214542 12 0 0.0 0.0 0.00 0.61 0.61 51 1010.8
20260502213052 12 0 0.0 3.2 0.00 0.61 0.61 55 1010.8
20260502211547 12 0 0.0 6.4 0.00 0.61 0.61 67 1010.8
20260502210043 12 360 0.0 4.8 0.00 0.61 0.61 69 1011.0
20260502204549 12 360 1.6 8.0 0.00 0.61 0.61 67 1011.0
20260502203048 12 360 0.0 6.4 0.00 0.61 0.61 67 1011.1
20260502201549 12 360 1.6 12.9 0.00 0.61 0.61 67 1011.0
20260502200045 12 360 1.6 9.7 0.00 0.61 0.61 66 1011.0
20260502194542 11 360 0.0 4.8 0.00 0.66 0.61 60 1011.1
20260502193044 11 360 3.2 12.9 0.00 0.66 0.61 56 1011.5
20260502191542 11 360 1.6 9.7 0.00 0.66 0.61 49 1011.5
20260502190043 12 0 0.0 4.8 0.00 0.66 0.61 38 1011.5
20260502184539 11 360 1.6 6.4 0.03 0.66 0.61 34 1011.6
20260502183046 11 0 0.0 8.0 0.03 0.66 0.61 32 1011.7
20260502181542 11 0 0.0 3.2 0.05 0.66 0.61 35 1012.1
20260502163043 11 360 1.6 6.4 0.10 0.56 0.51 35 1012.8
20260502161553 11 360 0.0 4.8 0.08 0.53 0.48 36 1013.0
20260502151545 11 360 0.0 8.0 0.08 0.46 0.41 30 1012.8
20260502123049 11 0 0.0 3.2 0.10 0.25 0.18 29 1011.4
20260502121546 11 0 0.0 1.6 0.10 0.23 0.15 29 1011.4
20260502114543 11 0 0.0 3.2 0.08 0.18 0.10 30 1011.5
20260502113042 11 0 0.0 3.2 0.05 0.15 0.08 28 1011.5
20260502111535 11 0 0.0 3.2 0.05 0.13 0.05 29 1011.8
20260502110042 11 0 0.0 4.8 0.05 0.13 0.05 27 1011.8
20260502104549 11 0 0.0 1.6 0.03 0.10 0.03 25 1011.8
20260502103040 11 0 0.0 3.2 0.03 0.10 0.03 23 1011.9
20260502101544 11 0 0.0 1.6 0.00 0.08 0.00 22 1011.7
20260502070043 11 0 0.0 0.0 0.00 0.08 0.00 24 1010.9
20260502064548 11 0 0.0 0.0 0.00 0.08 0.00 24 1011.0
20260502063040 11 0 0.0 0.0 0.00 0.08 0.00 25 1011.1
20260502061544 11 0 0.0 0.0 0.00 0.08 0.00 25 1011.3
20260502060045 11 0 0.0 0.0 0.00 0.08 0.00 26 1011.3
20260502054546 11 0 0.0 0.0 0.00 0.08 0.00 27 1011.5
20260502053043 11 0 0.0 0.0 0.00 0.08 0.00 27 1011.7
20260502051600 11 0 0.0 0.0 0.00 0.08 0.00 27 1011.8